TimeEST,TemperatureF,Dew PointF,Humidity,Sea Level PressureIn,VisibilityMPH,Wind Direction,Wind SpeedMPH,Gust SpeedMPH,PrecipitationIn,Events,Conditions,WindDirDegrees,DateUTC
12:56 AM,28.0,25.0,88,29.90,7.0,Calm,Calm,-,N/A,,Overcast,0,2013-02-05 05:56:00
1:12 AM,28.4,24.8,86,29.88,6.0,Calm,Calm,-,N/A,,Overcast,0,2013-02-05 06:12:00
1:31 AM,28.4,24.8,86,29.89,7.0,Calm,Calm,-,N/A,,Overcast,0,2013-02-05 06:31:00
1:50 AM,28.4,24.8,86,29.88,5.0,Calm,Calm,-,0.00,Snow,Light Snow,0,2013-02-05 06:50:00
1:56 AM,28.0,25.0,88,29.89,5.0,Calm,Calm,-,0.00,,Overcast,0,2013-02-05 06:56:00
2:12 AM,28.4,24.8,86,29.88,5.0,Calm,Calm,-,0.00,Snow,Light Snow,0,2013-02-05 07:12:00
2:56 AM,28.0,25.0,88,29.88,5.0,Calm,Calm,-,0.00,Snow,Light Snow,0,2013-02-05 07:56:00
3:56 AM,28.0,25.0,88,29.89,5.0,NNE,3.5,-,0.00,Snow,Light Snow,30,2013-02-05 08:56:00
4:05 AM,28.4,24.8,86,29.87,5.0,North,3.5,-,0.00,Snow,Light Snow,360,2013-02-05 09:05:00
4:56 AM,28.0,25.0,88,29.90,4.0,NE,3.5,-,0.00,Snow,Light Snow,40,2013-02-05 09:56:00
5:11 AM,28.4,24.8,86,29.89,3.0,Calm,Calm,-,0.00,Snow,Light Snow,0,2013-02-05 10:11:00
5:32 AM,28.4,24.8,86,29.88,3.0,Calm,Calm,-,0.00,Snow,Light Snow,0,2013-02-05 10:32:00
5:56 AM,28.0,25.0,88,29.90,3.0,Calm,Calm,-,0.01,Snow,Light Snow,0,2013-02-05 10:56:00
6:56 AM,28.0,25.0,88,29.91,4.0,Calm,Calm,-,0.00,Snow,Light Snow,0,2013-02-05 11:56:00
7:56 AM,28.0,24.1,85,29.93,3.0,Calm,Calm,-,0.00,Snow,Light Snow,0,2013-02-05 12:56:00
8:56 AM,28.0,25.0,88,29.94,3.0,Calm,Calm,-,0.00,,Overcast,0,2013-02-05 13:56:00
9:56 AM,28.9,25.0,85,29.94,4.0,Calm,Calm,-,N/A,,Overcast,0,2013-02-05 14:56:00
10:56 AM,30.0,26.1,85,29.95,4.0,Calm,Calm,-,N/A,,Overcast,0,2013-02-05 15:56:00
11:56 AM,30.9,26.1,82,29.94,4.0,South,3.5,-,N/A,,Haze,190,2013-02-05 16:56:00
12:56 PM,33.1,27.0,78,29.89,4.0,ESE,4.6,-,N/A,,Haze,110,2013-02-05 17:56:00
1:56 PM,33.1,27.0,78,29.88,5.0,Calm,Calm,-,N/A,,Haze,0,2013-02-05 18:56:00
2:56 PM,33.1,27.0,78,29.88,5.0,Calm,Calm,-,N/A,,Haze,0,2013-02-05 19:56:00
3:56 PM,32.0,27.0,82,29.88,3.0,SE,5.8,-,0.00,Snow,Light Snow,140,2013-02-05 20:56:00
4:03 PM,32.0,26.6,80,29.86,3.0,SE,4.6,-,0.00,Snow,Light Snow,130,2013-02-05 21:03:00
4:56 PM,32.0,27.0,82,29.88,4.0,SE,3.5,-,0.00,Snow,Light Snow,130,2013-02-05 21:56:00
5:16 PM,30.2,26.6,86,29.87,2.0,SE,3.5,-,0.00,Snow,Light Snow,130,2013-02-05 22:16:00
5:18 PM,30.2,26.6,86,29.87,1.0,Calm,Calm,-,0.00,Snow,Light Snow,0,2013-02-05 22:18:00
5:27 PM,30.2,28.4,93,29.87,1.0,Calm,Calm,-,0.01,Snow,Light Snow,0,2013-02-05 22:27:00
5:29 PM,30.2,28.4,93,29.87,2.0,East,3.5,-,0.01,Snow,Light Snow,90,2013-02-05 22:29:00
5:56 PM,30.2,28.4,93,29.87,2.0,Calm,Calm,-,N/A,Snow,Light Snow,0,2013-02-05 22:56:00
6:31 PM,32.0,28.4,87,29.87,2.0,Calm,Calm,-,0.00,,Overcast,0,2013-02-05 23:31:00
6:56 PM,32.0,28.0,85,29.89,4.0,Calm,Calm,-,0.00,,Overcast,0,2013-02-05 23:56:00
7:56 PM,32.0,28.0,85,29.90,5.0,Calm,Calm,-,N/A,,Overcast,0,2013-02-06 00:56:00
8:56 PM,30.2,28.4,93,29.89,4.0,Calm,Calm,-,N/A,,Overcast,0,2013-02-06 01:56:00
9:56 PM,32.0,28.9,88,29.94,4.0,Calm,Calm,-,0.00,Snow,Light Snow,0,2013-02-06 02:56:00
10:19 PM,32.0,28.4,87,29.92,3.0,Calm,Calm,-,0.00,Snow,Light Snow,0,2013-02-06 03:19:00
10:42 PM,32.0,28.4,87,29.92,3.0,Calm,Calm,-,0.00,Snow,Light Snow,0,2013-02-06 03:42:00
10:56 PM,30.9,28.0,89,29.94,3.0,Calm,Calm,-,0.00,,Overcast,0,2013-02-06 03:56:00
11:05 PM,32.0,28.4,87,29.92,3.0,Calm,Calm,-,0.00,Snow,Light Snow,0,2013-02-06 04:05:00
11:28 PM,30.2,28.4,93,29.92,3.0,Calm,Calm,-,0.00,,Overcast,0,2013-02-06 04:28:00
11:56 PM,30.0,28.0,92,29.95,3.0,Calm,Calm,-,0.00,,Overcast,0,2013-02-06 04:56:00